www.pogodaiklimat.ru

Погода и климат >> Архив погоды >> Россия >> Ненецкий АО >> Нарьян-Мар


АРХИВ ПОГОДЫ в Нарьян-Маре

Время (UTC), дата Ветер
(напр.,м/с)
 
Видим.   Явления Облачность Т
(С)
Тd
(С)
f
(%)
Тe
(С)
Тes
(С)
Комфортность P
(гПа)
Po
(гПа)
Тmin
(С)
Tmax
(С)
R
(мм)
R24
(мм)
S
(см)
09 12.08 СЗ 2 20 км 9/9 800 м
[Sc]
+7.2 +1.7 68 +5 +6 холодно 1018.6 1017.3
12 12.08 СВ 1 20 км 8/8 840 м
[Sc]
+9.5 +2.4 61 +9 +10 прохладно 1019.1 1017.8
15 12.08 Ю 1 20 км 6/0
[Ac lent Ci fib]
+9.1 +2.4 63 +9 +9 по сезону 1018.9 1017.6 +9.7
18 12.08 ЮВ 1 20 км 3/0
[Ac trans Ci fib]
+4.6 +2.4 86 +3 +3 холодно 1019.0 1017.6
21 12.08 Ю 2 20 км ясно +2.5 +1.6 94 -1 -1 очень
холодно
1019.2 1017.8
00 13.08 Ю 2 20 км ясно +2.4 +1.3 92 -1 -1 холодно 1019.8 1018.4
03 13.08 Ю 3 20 км ясно +6.7 +4.0 83 +4 +5 прохладно 1019.7 1018.4 +2.2
06 13.08 ЮЗ 3 20 км ясно +12.4 +4.6 59 +11 +16 по сезону 1019.2 1017.9
09 13.08 Ю 2 20 км ясно +15.4 +4.6 48 +15 +23 тепло 1018.5 1017.2
12 13.08 ЮВ 3 20 км 1/0
[Ci fib]
+16.7 +1.5 36 +17 +20 тепло 1017.5 1016.3
15 13.08 Ю 1 20 км 3/0
[Ci fib]
+15.9 +3.0 42 +17 +17 тепло 1016.3 1015.0 +17.0
18 13.08 ЮВ 1 20 км 4/0
[Ac lent Ci fib]
+6.6 +4.1 84 +6 +6 прохладно 1015.7 1014.4
21 13.08 ЮВ 1 20 км 4/0
[Ac lent Ci fib]
+2.0 +1.2 94 0 0 холодно 1014.7 1013.3
00 14.08 ЮВ 1 20 км 6/0
[Ac lent Ci fib]
+1.9 +1.5 97 -0 -0 холодно 1013.7 1012.4
03 14.08 В 1 20 км 8/0
[Ac trans Ci fib]
+5.4 +4.1 91 +4 +5 прохладно 1012.4 1011.1 +1.5
06 14.08 С 1 20 км 9/0
[Ac trans Ci fib]
+13.8 +6.4 61 +14 +18 тепло 1011.3 1010.0
09 14.08 С 2 20 км 8/0
[Ac trans Ci fib]
+17.1 +4.4 43 +17 +22 тепло 1009.8 1008.5
12 14.08 З 2 20 км 3/0
[Ci fib]
+17.8 +4.4 41 +18 +22 тепло 1009.2 1007.9
15 14.08 С 1 20 км 1/0
[Ci fib]
+16.9 +3.4 41 +18 +19 тепло 1008.7 1007.4 +18.0
18 14.08 В 1 20 км 9/0
[Ci]
+10.2 +8.1 87 +10 +10 по сезону 1008.5 1007.2
21 14.08 Ю 3 20 км 9/0
[Ci]
+11.3 +8.2 81 +9 +9 по сезону 1007.9 1006.6
00 15.08 Ю 2 20 км 10/0
[Ac und]
+9.5 +7.5 87 +8 +8 по сезону 1008.9 1007.6
03 15.08 ЮВ 1 20 км 8/0
[Ac trans Ci fib]
+10.4 +8.5 88 +10 +11 по сезону 1008.9 1007.6 +9.3
06 15.08 Ю 4 20 км 10/10 450 м
[Sc]
+12.6 +9.4 81 +11 +11 по сезону 1008.9 1007.6
09 15.08 Ю 4 20 км {ливн. осадки} 10/10 400 м
[Cb cap]
+13.2 +10.6 84 +11 +11 по сезону 1008.9 1007.6
12 15.08 Ю 2 20 км {ливн. осадки} 9/9 480 м
[Sc]
+15.3 +11.6 79 +15 +16 тепло 1008.7 1007.4
15 15.08 ЮВ 2 20 км 8/4 1000 м
[Sc Ac trans]
+15.4 +12.2 81 +15 +15 тепло 1008.3 1007.0 +16.2 0.0
18 15.08 ЮВ 2 20 км 9/4 1000 м
[Sc Ac trans]
+13.5 +12.0 91 +13 +13 тепло 1007.6 1006.3
21 15.08 ЮВ 2 20 км 6/0
[Ac trans]
+12.4 +11.0 91 +11 +11 тепло 1006.4 1005.1
00 16.08 В 2 20 км 9/3 600 м
[Sc Ac trans]
+12.0 +11.2 95 +11 +11 тепло 1004.0 1002.7
03 16.08 В 2 10 км слаб. ливневой дождь 10/10 600 м
[Cb cap As op Cs]
+12.5 +11.6 94 +11 +11 тепло 1001.9 1000.6 +11.6 0.6
06 16.08 В 3 10 км слаб. ливневой дождь 10/10 300 м
[Cb cap]
+13.2 +12.2 94 +12 +12 тепло 998.8 997.6
09 16.08 В 2 10 км слаб. ливневой дождь 10/10 210 м
[Cb cap]
+13.0 +12.3 96 +12 +12 по сезону 996.8 995.5
12 16.08 СЗ 2 10 км слаб. ливневой дождь 10/8 300 м
[Cb calv Ac und]
+13.8 +12.6 92 +13 +13 по сезону 997.5 996.2
15 16.08 СЗ 3 10 км слаб. ливневой дождь 10/10 270 м
[Cb calv]
+13.1 +12.5 96 +12 +12 тепло 999.9 998.6 +14.4 10
18 16.08 З 5 10 км слаб. ливневой дождь 10/10 180 м
[Cb cap]
+11.6 +11.1 97 +9 +9 по сезону 1003.7 1002.4
21 16.08 З 5
{10}
20 км {ливн. осадки} 10/10 150 м
[St]
+10.1 +9.9 99 +7 +7 по сезону 1006.8 1005.5
00 17.08 З 4 20 км {ливн. осадки} 10/10 500 м
[Sc]
+10.3 +9.7 96 +8 +8 по сезону 1010.0 1008.7
03 17.08 З 3 20 км 10/10 240 м
[St]
+10.2 +9.5 95 +8 +8 по сезону 1012.5 1011.2 +9.7 0.5
06 17.08 З 2 20 км 10/10 240 м
[St]
+11.3 +10.1 92 +10 +10 по сезону 1014.5 1013.1
09 17.08 З 2 20 км 10/10 300 м
[St]
+12.5 +10.4 87 +12 +12 по сезону 1015.6 1014.3
12 17.08 З 2 20 км 10/10 450 м
[Sc]
+12.5 +10.1 85 +12 +12 по сезону 1017.4 1016.1
15 17.08 З 2 20 км 10/10 270 м
[Frnb]
+10.6 +9.7 94 +9 +9 по сезону 1018.6 1017.3 +12.8
18 17.08 З 3 20 км {дождь} 10/10 420 м
[Sc]
+9.8 +8.7 93 +7 +7 по сезону 1019.6 1018.2
21 17.08 ЮЗ 2 4000 м слаб. морось 10/10 210 м
[St]
+8.1 +7.5 96 +6 +6 по сезону 1020.6 1019.2
00 18.08 Ю 1 20 км в посл. час морось 10/10 600 м
[Sc]
+8.4 +8.1 98 +7 +7 по сезону 1021.9 1020.5
03 18.08 Ю 2 20 км 10/10 720 м
[Sc]
+9.9 +8.9 93 +8 +8 по сезону 1022.5 1021.2 +8.0 0.0
06 18.08 ЮЗ 4 20 км 6/3 1000 м
[Sc Ac trans Ci fib]
+13.5 +10.1 80 +12 +14 тепло 1022.8 1021.5
09 18.08 Ю 4 20 км 8/6 800 м
[Cu hum Ci fib]
+17.0 +11.1 68 +17 +18 тепло 1022.9 1021.6
12 18.08 ЮЗ 3 20 км 4/3 600 м
[Cu hum Ci fib]
+18.5 +11.0 62 +19 +21 тепло 1023.3 1022.0
15 18.08 Ю 3 20 км 8/0
[Ac trans Ci fib]
+17.6 +11.6 68 +18 +18 тепло 1023.8 1022.5 +18.7
18 18.08 Ю 3 20 км 3/0
[Ac trans Ci fib]
+13.1 +10.5 84 +12 +12 тепло 1024.7 1023.4
21 18.08 Ю 3 20 км 3/0
[Ac trans Ci fib]
+10.9 +9.0 88 +9 +9 по сезону 1025.5 1024.1
00 19.08 Ю 2 20 км 3/0
[Ci fib]
+9.1 +8.4 95 +7 +7 по сезону 1026.2 1024.8
03 19.08 Ю 2 20 км 3/0
[Ci fib]
+11.7 +9.9 89 +11 +12 тепло 1026.6 1025.3 +8.9
06 19.08 Ю 3 20 км 3/0
[Ci fib]
+17.3 +10.5 64 +17 +21 тепло 1026.5 1025.2

 

Местоположение метеостанции Нарьян-Мар (Ненецкий АО, Россия): широта 67.63 долгота 53.02 высота над уровнем моря 12 м.

В архиве по умолчанию представлена погода в Нарьян-Маре за последнюю неделю. Архивные данные за месяц целиком и за предыдущие месяцы, начиная с января 2011 года, Вы можете получить, выбрав интересующий диапазон дат из раскрывающегося списка и нажав кнопку "Ввод!".


*Определитесь, кто Вы:
робот инопланетянин человек

Внимание! Время в таблицах - всемирное. Для получения местного времени необходимо прибавить поправку, которая равна 3 ч.

Смотрите также архив погоды в соседних городах и на ближайших метеорологических станциях:

Погода в Коткино (Ненецкий АО, Россия) (105 км)
Погода в Сенгейском Шаре (Ненецкий АО, Россия) (120 км)
Погода на Мысе Константиновском (Ненецкий АО, Россия) (145 км)
Погода в Ходоварихе (Ненецкий АО, Россия) (148 км)
Погода в Окуневом Носу (Коми, Россия) (155 км)
Погода в Индиге (Ненецкий АО, Россия) (184 км)
Погода в Бугрино (Ненецкий АО, Россия) (200 км)
Погода в Мутном Материке (Коми, Россия) (209 км)
Погода в Хорей-Вере (Ненецкий АО, Россия) (214 км)
Погода в Варандее (Ненецкий АО, Россия) (245 км)

Пояснения к столбцам:

Ветер - указаны скорость ветра в м/с - средняя за 10 мин, порывы в срок и между сроками (в фигурных скобках) и направление, откуда дует ветер: С - северный, СВ - северо-восточный, В - восточный, ЮВ - юго-восточный, Ю - южный, ЮЗ - юго-западный, З - западный, СЗ - северо-западный.
Видимость - горизонтальная дальность видимости в метрах или километрах. При видимости от 1 до 10 км при отсутствии осадков обычно наблюдается дымка, при ухудшении видимости до 1 км и менее - туман. В сухую погоду видимость может ухудшаться дымом, пылью или мглою.
Явления - указаны атмосферные явления, наблюдавшиеся в срок или в последний час перед сроком; фигурными скобками обозначены явления, наблюдавшиеся между сроками (за 1-3 часа до срока); квадратными скобками обозначены град или гололедные отложения с указанием их диаметра в мм.
Облачность - указаны через наклонную черту общая и нижняя облачность в баллах и высота нижней границы облаков в метрах; квадратными скобками обозначены формы облаков: Ci - перистые, Cs - перисто-слоистые, Cc - перисто-кучевые, Ac - высококучевые, As - высокослоистые, Sc - слоисто-кучевые, Ns - слоисто-дождевые, Cu - кучевые, Cb - кучево-дождевые. Подробнее классификацию облаков см. в Атласе облаков (PDF).
T - Температура воздуха - температура, измеренная на высоте 2 м над землей.
Td - Температура точки росы - температура, при понижении до которой содержащийся в воздухе водяной пар достигнет насыщения.
f - Относительная влажность воздуха - влажноcть воздуха, измеренная на высоте 2 м над землей.
Te - Эффективная температура - температура, которую ощущает одетый по сезону человек в тени. Характеристика душности погоды. При расчете учитывается влияние влажности воздуха и скорости ветра на теплоощущения человека.
Tes - Эффективная температура на солнце - температура, которую ощущает человек, с поправкой на солнечный нагрев. Характеристика знойности погоды. Зависит от высоты солнца над горизонтом, облачности и скорости ветра. Ночью, в пасмурную погоду, а также при ветре 12 м/с и более поправка равна нулю.
P - Атмосферное давление - приведенное к уровню моря атмосферное давление.
Po - Атмосферное давление - измеренное на уровне метеостанции атмосферное давление.
Tmin - Минимальная температура - минимум температуры воздуха на высоте 2 м над землей.
Tmax - Максимальная температура - максимум температуры воздуха на высоте 2 м над землей.
R - Количество осадков - Количество выпавших осадков за период времени, мм. При наведении курсора мыши на число - период времени, за который выпало указанное количество осадков.
R24 - Количество осадков - Количество выпавших осадков за 24 часа, мм.
S - Снежный покров - Высота снежного покрова, см. При наведении курсора мыши на число - состояние снежного покрова и степень покрытия местности в баллах.